{"data":{"norad_id":58095,"epoch":"2026-09-20T21:58:23.824128Z","epoch_age_seconds":104607,"freshness":"FRESH","line1":"1 58095U 23160W   26263.91555352  .00000467  00000+0  26476-4 0  9998","line2":"2 58095  43.0005  55.3047 0001298 268.1550  91.9153 15.27580600162801","mean_motion":15.275806,"eccentricity":0.0001298,"inclination_deg":43.0005,"raan_deg":55.3047,"arg_perigee_deg":268.155,"mean_anomaly_deg":91.9153,"bstar":2.6476e-5,"rev_number":16280,"period_min":94.26671168775,"perigee_km":482.15671770233,"apogee_km":483.93788114646,"semimajor_km":6861.1842994244,"source":"CELESTRAK","updated_at":"2026-09-21T09:00:33.785427Z"}}